Flag for Congo Dem.Rep. Weather past 2 weeks in Bukavu, Congo Dem.Rep.

Now
81 °F

Partly sunny.


Feels Like: 81 °F
Forecast: 56 / 71 °F
Wind: 12 mph from South

Location: Kigali Airport

Current Time: Aug 29, 2014 at 2:37:12 PM

Latest Report: Aug 29, 2014 at 2:00 PM


Visibility: N/A

Pressure: 30.07 "Hg

Humidity: 51%

Dew point: 61 °F

Location of BukavuLocation

Historic Weather in Bukavu — Graph

°F

Bukavu temperature yesterday

Maximum temperature yesterday: 86 °F (at 2:00 PM)
Minimum temperature yesterday: 63 °F (at 6:00 AM)
Average temperature yesterday: 72 °F

Past Weeks' High & Low Weather Summary

 TemperatureHumidityPressure
High88 °F (Aug 23, 3:00 PM)100% (Aug 14, 10:30 PM)30.24 "Hg (Aug 14, 10:30 PM)
Low61 °F (Aug 29, 4:00 AM)29% (Aug 23, 4:00 PM)29.95 "Hg (Aug 23, 4:00 PM)
Average71 °F73%30.13 "Hg
* Reported Aug 14 1:00 PM — Aug 29 1:30 PM, Bukavu, Weather by CustomWeather, © 2014

Note: Actual official high and low records may vary slightly from our data, if they occured in-between our weather recording intervals... More about our weather records

Advertising

Bukavu weather history for previous 24 hours

 ConditionsComfort  
Time TempWeatherWind HumidityBarometerVisibility
1:30 PM
Aug 29
81 °FPartly sunny.9 mph51%30.09 "HgN/A
1:00 PM82 °FPartly sunny.8 mph51%30.09 "HgN/A
12:30 PM81 °FScattered clouds.3 mph54%30.12 "HgN/A
12:00 PM79 °FScattered clouds.6 mph54%30.12 "HgN/A
11:30 AM79 °FScattered clouds.3 mph58%30.15 "HgN/A
10:30 AM77 °FPassing clouds.5 mph61%30.15 "HgN/A
10:00 AM75 °FPassing clouds.No wind69%30.18 "HgN/A
9:30 AM72 °FPassing clouds.No wind78%30.18 "HgN/A
9:00 AM70 °FPassing clouds.3 mph83%30.18 "HgN/A
8:30 AM68 °FPassing clouds.5 mph88%30.18 "Hg5 mi
8:00 AM64 °FScattered clouds.3 mph94%30.15 "Hg4 mi
7:30 AM64 °FScattered clouds.6 mph94%30.15 "Hg4 mi
7:00 AM61 °FPassing clouds.No wind100%30.12 "HgN/A
6:30 AM61 °FPassing clouds.No wind100%30.12 "HgN/A
6:00 AM61 °FPassing clouds.No wind100%30.09 "HgN/A
5:00 AM61 °FPassing clouds.3 mph100%30.09 "Hg5 mi
4:30 AM61 °FPassing clouds.No wind100%30.07 "Hg5 mi
4:00 AM61 °FPassing clouds.No wind100%30.07 "Hg5 mi
2:30 AM63 °FPassing clouds.3 mph100%30.07 "Hg5 mi
1:30 AM64 °FPassing clouds.No wind94%30.09 "Hg5 mi
1:00 AM64 °FPassing clouds.No wind94%30.12 "Hg5 mi
12:30 AM64 °FPassing clouds.No wind94%30.12 "Hg5 mi
12:00 AM64 °FPassing clouds.3 mph94%30.12 "Hg5 mi
11:30 PM
Aug 28
64 °FPartly cloudy.6 mph94%30.15 "Hg5 mi
11:00 PM66 °FPartly cloudy.5 mph88%30.12 "Hg5 mi
10:30 PM66 °FPassing clouds.5 mph88%30.15 "Hg5 mi
10:00 PM66 °FPassing clouds.5 mph88%30.12 "Hg5 mi
9:30 PM68 °FThunderstorms. Passing clouds.5 mph78%30.12 "Hg5 mi
9:00 PM66 °FThunderstorms. Passing clouds.10 mph83%30.12 "Hg5 mi
8:30 PM66 °FThunderstorms. Passing clouds.7 mph83%30.09 "Hg5 mi
8:00 PM68 °FThunderstorms. Partly cloudy.7 mph83%30.09 "Hg5 mi
7:30 PM72 °FPartly cloudy.8 mph57%30.07 "HgN/A
7:00 PM73 °FPartly cloudy.9 mph57%30.07 "HgN/A
6:30 PM75 °FPassing clouds.9 mph57%30.04 "HgN/A
6:00 PM75 °FPassing clouds.7 mph57%30.01 "HgN/A
5:00 PM79 °FScattered clouds.5 mph48%30.01 "HgN/A
3:00 PM86 °FScattered clouds.5 mph38%29.98 "HgN/A
2:00 PM86 °FPartly sunny.8 mph38%30.04 "HgN/A
Weather by CustomWeather, © 2014

See weather overviewHow to use our weather pages